Regional Weather Roundup
Issued by NWS Goodland, KS

Home | Current Version | Previous Version | Text Only | Print | Product List | Glossary Off
Versions: 1 2 3 4 5 6 7 8 9 10 11 12 13 14 15 16 17 18 19 20 21 22 23 24 25 26 27 28 29 30 31 32 33 34 35 36 37 38 39 40 41 42 43 44 45 46 47 48 49 50

000
ASUS43 KGLD 302308
RWRGLD

GOODLAND FORECAST AREA HOURLY WEATHER ROUNDUP
NATIONAL WEATHER SERVICE GOODLAND KS
500 PM MDT MON MAY 30 2016

...OFFICIAL OBSERVATIONS...

CITY           SKY/WX    TMP DP  RH WIND       PRES   REMARKS
GOODLAND KS    CLOUDY    81  53  37 S18       29.84F
HILL CITY KS   SUNNY     85  53  33 S17G24    29.85F
IMPERIAL NEB   CLOUDY    79  56  45 S9        29.82F
MCCOOK NEB     CLOUDY    80  57  45 S13G18    29.82F
AKRON CO       CLOUDY    58  49  72 N15       29.98R
BURLINGTON CO  CLOUDY    79  50  36 SW10      29.89F
LIMON CO       CLOUDY    64  40  41 E18G28    29.98F
$$

...UNOFFICIAL OBSERVATIONS...

CITY           SKY/WX    TMP DP  RH WIND       PRES   REMARKS
GOVE KS          N/A    N/A N/A N/A MISG        N/A
LENORA KS        N/A     81  32  17 MISG        N/A
SHARON SPRINGS   N/A     83  57  40 S15G25      N/A
TRIBUNE KS     CLOUDY    84  52  32 S12       29.88S
KIT CARSON CO    N/A     77  47  34 MISG        N/A
YUMA CO          N/A     65  50  58 NE15G23     N/A
$$




USA.gov is the U.S. government's official web portal to all federal, state and local government web resources and services.